Beckley, WV

8:08 AM EDT on October 16, 2019 (GMT -0400)
Raleigh County Memorial

Weather History for KBKW - September, 2019

Change the Weather History Date:

Thursday, September 19, 2019

  Actual Average Record
Temperature  
Mean Temperature 64 °F 62 °F  
Max Temperature 73 °F 72 °F 89 °F (1953)
Min Temperature 55 °F 52 °F 31 °F (1959)
Degree Days  
Heating Degree Days 0 4  
Month to date heating degree days 0 45  
Since 1 July heating degree days 9 66  
Cooling Degree Days 0 1  
Month to date cooling degree days 140 48  
Year to date cooling degree days 834 541  
Growing Degree Days 14 (Base 50)    
Moisture  
Dew Point 50 °F    
Average Humidity 62    
Maximum Humidity 78    
Minimum Humidity 46    
Precipitation  
Precipitation 0.00 in 0.10 in 1.48 in (1942)
Month to date precipitation 0.03 1.96  
Year to date precipitation 31.75 31.62  
Snow  
Snow 0.00 in 0.00 in 0.00 in (2016)
Month to date snowfall 0.0 0.0  
Since 1 September snowfall 0.0 0.0  
Snow Depth 0.00 in    
Sea Level Pressure  
Sea Level Pressure 30.21 in    
Wind  
Wind Speed 9 mph ()    
Max Wind Speed 20 mph    
Max Gust Speed 27 mph    
Visibility 10.0 miles    
Events      
T = Trace of Precipitation, MM = Missing Value Source: Averaged Metar Reports

Daily Weather History Graph

Daily Weather History Graph

Search for Another Location

Airport or City:

Astronomy

Sep. 19, 2019 Rise Set
Actual Time 7:09 AM EDT 7:26 PM EDT
Civil Twilight 6:43 AM EDT 7:52 PM EDT
Nautical Twilight 6:12 AM EDT 8:23 PM EDT
Astronomical Twilight 5:41 AM EDT 8:54 PM EDT
Moon 10:40 PM EDT (9/19) 12:06 PM EDT (9/19)
Length of Visible Light 13h 09m
Length of Day
12h 16m
Waning Gibbous, 74% of the Moon is Illuminated
Sep 19
Waning Gibbous
Sep 21
Last Quarter
Sep 28
New
Oct 5
First Quarter
Oct 13
Full

Hourly Weather History & Observations

Time (EDT) Temp. Dew Point Humidity Pressure Visibility Wind Dir Wind Speed Gust Speed Precip Events Conditions
12:51 AM 61.0 °F 53.1 °F 75% 30.16 in 10.0 mi SE 9.2 mph - N/A   Clear
1:51 AM 59.0 °F 52.0 °F 78% 30.18 in 10.0 mi SE 6.9 mph - N/A   Clear
2:51 AM 59.0 °F 50.0 °F 72% 30.17 in 10.0 mi SE 9.2 mph - N/A   Clear
3:51 AM 59.0 °F 48.9 °F 69% 30.17 in 10.0 mi SSE 11.5 mph - N/A   Clear
4:51 AM 57.9 °F 48.9 °F 72% 30.17 in 10.0 mi SE 10.4 mph - N/A   Clear
5:51 AM 55.9 °F 48.9 °F 77% 30.18 in 10.0 mi ESE 8.1 mph - N/A   Clear
6:51 AM 55.9 °F 48.0 °F 75% 30.19 in 10.0 mi SE 6.9 mph - N/A   Clear
7:51 AM 55.9 °F 48.9 °F 77% 30.22 in 10.0 mi SE 8.1 mph 17.3 mph N/A   Clear
8:51 AM 57.9 °F 48.9 °F 72% 30.24 in 10.0 mi SE 13.8 mph 20.7 mph N/A   Clear
9:51 AM 60.1 °F 48.9 °F 67% 30.25 in 10.0 mi SE 19.6 mph 24.2 mph N/A   Clear
10:51 AM 63.0 °F 48.9 °F 60% 30.25 in 10.0 mi SSE 13.8 mph 23.0 mph N/A   Clear
11:51 AM 64.9 °F 48.9 °F 56% 30.25 in 10.0 mi SSE 15.0 mph 21.9 mph N/A   Clear
12:51 PM 66.9 °F 48.9 °F 52% 30.24 in 10.0 mi SSE 12.7 mph - N/A   Clear
1:51 PM 70.0 °F 50.0 °F 49% 30.22 in 10.0 mi SSE 9.2 mph - N/A   Clear
2:51 PM 72.0 °F 51.1 °F 48% 30.20 in 10.0 mi SSE 10.4 mph - N/A   Clear
3:51 PM 73.0 °F 51.1 °F 46% 30.18 in 10.0 mi South 12.7 mph 18.4 mph N/A   Clear
4:51 PM 72.0 °F 51.1 °F 48% 30.18 in 10.0 mi SSW 5.8 mph - N/A   Clear
5:35 PM 72.0 °F 50.0 °F 46% 30.24 in 10.0 mi ESE 10.4 mph - N/A   Clear
5:51 PM 71.1 °F 50.0 °F 47% 30.19 in 10.0 mi SE 12.7 mph - N/A   Clear
6:51 PM 69.1 °F 50.0 °F 51% 30.19 in 10.0 mi SE 10.4 mph - N/A   Clear
7:51 PM 64.0 °F 50.0 °F 60% 30.21 in 10.0 mi SE 6.9 mph - N/A   Clear
8:51 PM 63.0 °F 50.0 °F 63% 30.22 in 10.0 mi SSE 9.2 mph - N/A   Clear
9:51 PM 62.1 °F 48.0 °F 60% 30.22 in 10.0 mi SE 11.5 mph 25.3 mph N/A   Clear
10:51 PM 60.1 °F 48.0 °F 64% 30.23 in 10.0 mi SSE 12.7 mph 25.3 mph N/A   Clear
11:51 PM 57.9 °F 46.9 °F 67% 30.23 in 10.0 mi SSE 12.7 mph 23.0 mph N/A   Clear